Radiation Dose at Monitoring Post of Fukushima Daini Nuclear Power Station
Date,Time,MP-1(microSv/h),MP-2(microSv/h),MP-3(microSv/h),MP-4(microSv/h),MP-5(microSv/h),MP-6(microSv/h),MP-7(microSv/h),Wind Direction,Wind Velocity(m/s),Rain
2020/07/28,00:00,0.165,0.152,0.240,0.231,0.239,0.130,0.081,south,2.4,Yes
2020/07/28,00:10,0.167,0.153,0.243,0.233,0.240,0.130,0.080,south-southeast,2.2,Yes
2020/07/28,00:20,0.165,0.152,0.241,0.232,0.240,0.131,0.081,south,2.1,Yes
2020/07/28,00:30,0.166,0.154,0.240,0.232,0.237,0.131,0.081,south,2.4,Yes
2020/07/28,00:40,0.167,0.153,0.243,0.233,0.241,0.131,0.081,south-southwest,1.3,Yes
2020/07/28,00:50,0.167,0.154,0.242,0.232,0.240,0.131,0.082,-,CALM,Yes
2020/07/28,01:00,0.168,0.154,0.243,0.234,0.241,0.132,0.082,south-southeast,0.7,Yes
2020/07/28,01:10,0.167,0.154,0.243,0.234,0.243,0.133,0.083,south-southwest,0.7,Yes
2020/07/28,01:20,0.168,0.154,0.243,0.233,0.241,0.133,0.083,south-southeast,0.6,Yes
2020/07/28,01:30,0.168,0.154,0.244,0.234,0.243,0.133,0.084,south-southeast,0.9,Yes
2020/07/28,01:40,0.168,0.156,0.242,0.233,0.243,0.134,0.084,south-southeast,1.0,Yes
2020/07/28,01:50,0.168,0.155,0.245,0.235,0.242,0.134,0.084,south-southeast,1.5,Yes
2020/07/28,02:00,0.168,0.156,0.244,0.235,0.244,0.134,0.085,south,2.4,Yes
2020/07/28,02:10,0.169,0.157,0.243,0.233,0.241,0.134,0.084,south,2.5,Yes
2020/07/28,02:20,0.168,0.155,0.244,0.235,0.241,0.133,0.084,south,2.6,Yes
2020/07/28,02:30,0.167,0.156,0.242,0.233,0.243,0.135,0.085,south,2.7,Yes
2020/07/28,02:40,0.169,0.155,0.243,0.235,0.240,0.133,0.083,south,1.9,Yes
2020/07/28,02:50,0.167,0.154,0.242,0.233,0.241,0.131,0.083,south,1.1,Yes
2020/07/28,03:00,0.167,0.154,0.241,0.232,0.242,0.133,0.082,south,0.8,Yes
2020/07/28,03:10,0.168,0.153,0.243,0.234,0.239,0.132,0.082,-,CALM,Yes
2020/07/28,03:20,0.166,0.155,0.240,0.232,0.242,0.132,0.082,-,CALM,Yes
2020/07/28,03:30,0.167,0.153,0.242,0.233,0.240,0.132,0.082,-,CALM,Yes
2020/07/28,03:40,0.167,0.154,0.240,0.234,0.238,0.131,0.082,-,CALM,Yes
2020/07/28,03:50,0.166,0.153,0.241,0.232,0.242,0.131,0.083,-,CALM,Yes
2020/07/28,04:00,0.167,0.153,0.242,0.233,0.240,0.132,0.083,-,CALM,Yes
2020/07/28,04:10,0.166,0.155,0.240,0.232,0.239,0.131,0.083,west,0.9,Yes
2020/07/28,04:20,0.167,0.153,0.243,0.231,0.241,0.132,0.082,northwest,0.7,Yes
2020/07/28,04:30,0.167,0.153,0.241,0.233,0.239,0.132,0.082,west,0.8,Yes
2020/07/28,04:40,0.165,0.154,0.241,0.230,0.241,0.130,0.082,north-northwest,1.0,Yes
2020/07/28,04:50,0.167,0.154,0.243,0.233,0.241,0.132,0.081,northwest,0.7,Yes
2020/07/28,05:00,0.165,0.153,0.241,0.232,0.240,0.131,0.082,northwest,1.3,Yes
2020/07/28,05:10,0.167,0.153,0.243,0.233,0.243,0.132,0.083,north-northwest,2.0,Yes
2020/07/28,05:20,0.167,0.154,0.241,0.234,0.239,0.133,0.082,north-northwest,1.4,Yes
2020/07/28,05:30,0.167,0.154,0.242,0.231,0.242,0.131,0.083,north-northwest,1.4,Yes
2020/07/28,05:40,0.168,0.153,0.243,0.235,0.242,0.133,0.082,north-northwest,0.9,Yes
2020/07/28,05:50,0.167,0.154,0.241,0.232,0.240,0.133,0.083,north-northwest,0.6,Yes
2020/07/28,06:00,0.166,0.153,0.243,0.231,0.243,0.132,0.083,-,CALM,Yes
2020/07/28,06:10,0.168,0.155,0.243,0.234,0.241,0.132,0.083,-,CALM,Yes
2020/07/28,06:20,0.167,0.155,0.241,0.232,0.239,0.133,0.084,-,CALM,Yes
2020/07/28,06:30,0.167,0.155,0.243,0.233,0.242,0.131,0.083,southeast,1.0,Yes
2020/07/28,06:40,0.167,0.155,0.241,0.232,0.240,0.132,0.083,-,CALM,Yes
2020/07/28,06:50,0.166,0.153,0.241,0.232,0.239,0.132,0.083,-,CALM,Yes
2020/07/28,07:00,0.167,0.154,0.243,0.235,0.243,0.131,0.082,-,CALM,Yes
2020/07/28,07:10,0.166,0.153,0.240,0.233,0.240,0.133,0.083,-,CALM,Yes
2020/07/28,07:20,0.165,0.153,0.242,0.232,0.241,0.133,0.083,-,CALM,Yes
2020/07/28,07:30,0.167,0.155,0.242,0.235,0.242,0.132,0.083,-,CALM,Yes
2020/07/28,07:40,0.167,0.155,0.240,0.233,0.242,0.133,0.084,-,CALM,Yes
2020/07/28,07:50,0.167,0.155,0.244,0.232,0.240,0.133,0.083,north,0.7,Yes
2020/07/28,08:00,0.167,0.155,0.243,0.235,0.242,0.132,0.084,north-northeast,1.5,Yes
2020/07/28,08:10,0.167,0.154,0.242,0.232,0.241,0.133,0.084,north-northeast,2.0,Yes
2020/07/28,08:20,0.169,0.157,0.244,0.234,0.241,0.133,0.084,north,2.0,Yes
2020/07/28,08:30,0.168,0.155,0.244,0.235,0.244,0.133,0.084,north,1.4,Yes
2020/07/28,08:40,0.167,0.156,0.243,0.233,0.242,0.134,0.085,north,2.1,Yes
2020/07/28,08:50,0.168,0.157,0.245,0.234,0.242,0.134,0.085,north,3.6,Yes
2020/07/28,09:00,0.167,0.156,0.242,0.234,0.244,0.133,0.086,north,3.2,Yes
2020/07/28,09:10,0.168,0.157,0.245,0.233,0.241,0.135,0.086,north,3.2,Yes
2020/07/28,09:20,0.167,0.157,0.244,0.235,0.243,0.134,0.086,north,2.5,Yes
2020/07/28,09:30,0.167,0.158,0.242,0.232,0.243,0.134,0.086,north,2.2,Yes
2020/07/28,09:40,0.169,0.158,0.245,0.234,0.241,0.136,0.087,north-northeast,2.5,Yes
2020/07/28,09:50,0.167,0.158,0.242,0.234,0.245,0.134,0.086,north,1.9,Yes
2020/07/28,10:00,0.168,0.158,0.243,0.232,0.243,0.135,0.085,north-northeast,1.6,Yes
2020/07/28,10:10,0.167,0.157,0.243,0.234,0.241,0.135,0.085,northeast,1.1,Yes
2020/07/28,10:20,0.167,0.158,0.243,0.234,0.245,0.132,0.085,-,CALM,Yes
2020/07/28,10:30,0.167,0.158,0.243,0.232,0.242,0.134,0.085,north-northeast,0.6,Yes
2020/07/28,10:40,0.166,0.157,0.242,0.233,0.241,0.134,0.086,northeast,0.9,Yes
2020/07/28,10:50,0.166,0.157,0.243,0.231,0.243,0.133,0.084,north-northwest,0.8,Yes
2020/07/28,11:00,0.166,0.155,0.242,0.233,0.241,0.134,0.086,-,CALM,Yes
2020/07/28,11:10,0.166,0.157,0.241,0.231,0.241,0.134,0.085,northwest,0.6,Yes
2020/07/28,11:20,0.168,0.156,0.243,0.230,0.243,0.133,0.085,north,0.8,Yes
2020/07/28,11:30,0.166,0.155,0.241,0.232,0.239,0.133,0.086,north,1.4,Yes
2020/07/28,11:40,0.167,0.156,0.241,0.232,0.241,0.133,0.086,west,1.2,Yes
2020/07/28,11:50,0.167,0.155,0.242,0.231,0.243,0.133,0.085,west-southwest,0.6,Yes
2020/07/28,12:00,0.165,0.156,0.241,0.233,0.241,0.134,0.085,north-northwest,1.0,Yes
2020/07/28,12:10,0.167,0.155,0.243,0.231,0.241,0.133,0.084,north-northwest,1.3,Yes
2020/07/28,12:20,0.166,0.156,0.240,0.232,0.243,0.133,0.084,north-northwest,1.6,Yes
2020/07/28,12:30,0.166,0.156,0.241,0.232,0.241,0.133,0.085,north-northwest,2.4,Yes
2020/07/28,12:40,0.168,0.156,0.243,0.228,0.242,0.133,0.085,northwest,3.1,Yes
2020/07/28,12:50,0.165,0.157,0.240,0.232,0.242,0.132,0.086,northwest,2.7,Yes
2020/07/28,13:00,0.167,0.156,0.242,0.233,0.240,0.134,0.085,northwest,2.4,Yes
2020/07/28,13:10,0.166,0.154,0.242,0.231,0.242,0.134,0.085,northwest,2.2,Yes
2020/07/28,13:20,0.164,0.155,0.239,0.232,0.242,0.131,0.085,northwest,2.1,Yes
2020/07/28,13:30,0.166,0.155,0.243,0.233,0.240,0.131,0.085,north-northwest,2.0,Yes
2020/07/28,13:40,0.165,0.156,0.242,0.229,0.243,0.134,0.086,north-northwest,1.8,Yes
2020/07/28,13:50,0.167,0.157,0.240,0.233,0.244,0.134,0.086,north-northwest,1.8,Yes
2020/07/28,14:00,0.168,0.156,0.245,0.232,0.242,0.135,0.087,northwest,1.7,Yes
2020/07/28,14:10,0.167,0.158,0.243,0.231,0.244,0.136,0.088,northwest,0.7,Yes
2020/07/28,14:20,0.167,0.157,0.244,0.233,0.245,0.136,0.088,north,0.7,Yes
2020/07/28,14:30,0.168,0.159,0.244,0.233,0.243,0.136,0.088,north-northwest,0.7,Yes
2020/07/28,14:40,0.167,0.158,0.243,0.232,0.245,0.136,0.089,-,CALM,Yes
2020/07/28,14:50,0.168,0.158,0.246,0.235,0.245,0.135,0.088,-,CALM,Yes
2020/07/28,15:00,0.166,0.158,0.245,0.232,0.243,0.136,0.088,-,CALM,Yes
2020/07/28,15:10,0.168,0.156,0.244,0.234,0.245,0.135,0.088,southwest,0.7,Yes
2020/07/28,15:20,0.168,0.159,0.246,0.235,0.246,0.135,0.088,east,1.0,Yes
2020/07/28,15:30,0.169,0.158,0.244,0.231,0.243,0.136,0.088,-,CALM,Yes
2020/07/28,15:40,0.169,0.157,0.245,0.235,0.246,0.135,0.088,-,CALM,Yes
2020/07/28,15:50,0.167,0.158,0.244,0.234,0.246,0.135,0.089,-,CALM,Yes
2020/07/28,16:00,0.167,0.156,0.242,0.232,0.243,0.136,0.088,east,0.8,Yes
2020/07/28,16:10,0.167,0.157,0.244,0.235,0.246,0.134,0.087,southeast,1.2,Yes
2020/07/28,16:20,0.166,0.156,0.242,0.231,0.242,0.133,0.086,-,CALM,Yes
2020/07/28,16:30,0.167,0.155,0.242,0.231,0.241,0.134,0.085,south-southwest,1.9,Yes
2020/07/28,16:40,0.167,0.155,0.242,0.232,0.243,0.132,0.084,south-southwest,1.7,Yes
2020/07/28,16:50,0.164,0.154,0.240,0.230,0.240,0.132,0.085,southwest,2.1,Yes
2020/07/28,17:00,0.167,0.155,0.241,0.231,0.239,0.132,0.084,-,CALM,Yes
2020/07/28,17:10,0.166,0.156,0.241,0.230,0.243,0.133,0.086,north,3.2,Yes
2020/07/28,17:20,0.167,0.157,0.240,0.229,0.242,0.135,0.088,north-northwest,4.8,Yes
2020/07/28,17:30,0.168,0.159,0.244,0.234,0.245,0.136,0.089,-,CALM,Yes
2020/07/28,17:40,0.166,0.159,0.242,0.231,0.246,0.135,0.090,-,CALM,Yes
2020/07/28,17:50,0.165,0.161,0.242,0.232,0.243,0.138,0.093,-,CALM,Yes
2020/07/28,18:00,0.164,0.159,0.242,0.232,0.247,0.139,0.094,-,CALM,Yes
2020/07/28,18:10,0.167,0.162,0.239,0.232,0.244,0.139,0.094,-,CALM,Yes
2020/07/28,18:20,0.166,0.162,0.241,0.233,0.248,0.140,0.094,-,CALM,Yes
2020/07/28,18:30,0.166,0.164,0.241,0.232,0.246,0.138,0.095,north-northwest,7.8,Yes
2020/07/28,18:40,0.168,0.163,0.246,0.237,0.248,0.141,0.095,north-northwest,8.1,Yes
2020/07/28,18:50,0.169,0.164,0.243,0.234,0.249,0.142,0.096,-,CALM,Yes
2020/07/28,19:00,0.170,0.164,0.244,0.235,0.247,0.141,0.097,northwest,9.2,Yes
2020/07/28,19:10,0.169,0.163,0.241,0.235,0.250,0.141,0.098,northwest,9.6,Yes
2020/07/28,19:20,0.169,0.163,0.243,0.234,0.247,0.140,0.097,northwest,9.8,Yes
2020/07/28,19:30,0.169,0.162,0.244,0.238,0.249,0.141,0.096,north-northwest,9.2,Yes
2020/07/28,19:40,0.170,0.162,0.244,0.235,0.248,0.139,0.094,north-northwest,8.8,No
2020/07/28,19:50,0.167,0.160,0.243,0.237,0.247,0.136,0.092,north-northwest,10.1,No
2020/07/28,20:00,0.168,0.158,0.242,0.234,0.247,0.135,0.090,northwest,9.0,Yes
2020/07/28,20:10,0.166,0.157,0.244,0.237,0.245,0.133,0.090,north-northwest,8.7,Yes
2020/07/28,20:20,0.165,0.157,0.241,0.233,0.246,0.134,0.089,north-northwest,9.3,No
2020/07/28,20:30,0.166,0.154,0.241,0.233,0.243,0.133,0.088,north-northwest,8.7,No
2020/07/28,20:40,0.163,0.154,0.237,0.231,0.243,0.132,0.086,north-northwest,7.5,No
2020/07/28,20:50,0.164,0.153,0.240,0.230,0.241,0.129,0.084,north-northwest,7.6,No
2020/07/28,21:00,0.162,0.152,0.237,0.231,0.240,0.128,0.083,north-northwest,7.5,No
2020/07/28,21:10,0.163,0.152,0.238,0.228,0.240,0.128,0.082,north-northwest,7.1,No
2020/07/28,21:20,0.163,0.150,0.236,0.230,0.237,0.128,0.081,north-northwest,7.0,No
2020/07/28,21:30,0.162,0.150,0.238,0.227,0.240,0.126,0.081,north-northwest,5.4,No
2020/07/28,21:40,0.163,0.149,0.236,0.227,0.237,0.127,0.080,north,4.1,No
2020/07/28,21:50,0.161,0.150,0.235,0.227,0.237,0.126,0.080,north-northwest,2.8,No
2020/07/28,22:00,0.163,0.149,0.236,0.228,0.237,0.127,0.080,northwest,3.8,No
2020/07/28,22:10,0.162,0.150,0.234,0.229,0.235,0.127,0.079,north-northwest,5.6,No
2020/07/28,22:20,0.161,0.149,0.236,0.226,0.236,0.126,0.080,north-northwest,5.6,No
2020/07/28,22:30,0.161,0.148,0.234,0.228,0.236,0.127,0.079,north-northwest,4.7,No
2020/07/28,22:40,0.160,0.150,0.237,0.227,0.237,0.126,0.079,northwest,5.3,Yes
2020/07/28,22:50,0.162,0.149,0.235,0.228,0.237,0.126,0.080,north-northwest,4.9,No
2020/07/28,23:00,0.162,0.151,0.236,0.229,0.236,0.127,0.080,north-northwest,5.8,No
2020/07/28,23:10,0.162,0.150,0.236,0.227,0.238,0.125,0.081,north-northwest,5.4,No
2020/07/28,23:20,0.162,0.150,0.237,0.229,0.235,0.127,0.080,north-northwest,5.1,No
2020/07/28,23:30,0.163,0.149,0.237,0.228,0.237,0.127,0.079,north-northwest,2.3,No
2020/07/28,23:40,0.163,0.149,0.235,0.229,0.237,0.127,0.079,north-northwest,2.7,No
2020/07/28,23:50,0.161,0.150,0.238,0.229,0.236,0.127,0.080,north-northwest,4.4,No
